This is the latest recevied weather packets stored in our database for station/object KC9DK. If no packets are shown the sender has not sent any weather packets the latest 10 day(s).
| Time | Temp. | Humidity | Pressure | Rain* | Wind** | Luminosity | Snow |
|---|---|---|---|---|---|---|---|
| 1778364120 | 24.44° C | 45% | 1009.3 hPa | 0 mm | - | 38 W/m² | - |
| 1778363816 | 24.44° C | 46% | 1009.8 hPa | 0 mm | - | 39 W/m² | - |
| 1778363513 | 24.44° C | 47% | 1009.5 hPa | 0 mm | - | 39 W/m² | - |
| 1778363209 | 24.44° C | 45% | 1009.5 hPa | 0 mm | - | 39 W/m² | - |
| 1778362906 | 24.44° C | 45% | 1009.3 hPa | 0 mm | - | 40 W/m² | - |
| 1778362604 | 24.44° C | 49% | 1009.5 hPa | 0 mm | - | 41 W/m² | - |
| 1778362299 | 23.89° C | 48% | 1009.6 hPa | 0 mm | - | 41 W/m² | - |
| 1778361997 | 24.44° C | 48% | 1009.7 hPa | 0 mm | - | 43 W/m² | - |
| 1778361693 | 23.89° C | 48% | 1009.7 hPa | 0 mm | - | 120 W/m² | - |
| 1778361389 | 24.44° C | 47% | 1009.5 hPa | 0 mm | - | 112 W/m² | - |
| 1778361086 | 23.89° C | 51% | 1009.7 hPa | 0 mm | - | 45 W/m² | - |
| 1778360783 | 23.89° C | 52% | 1009.6 hPa | 0 mm | - | 45 W/m² | - |
| 1778360480 | 23.89° C | 48% | 1009.8 hPa | 0 mm | - | 45 W/m² | - |
| 1778360174 | 23.89° C | 52% | 1009.7 hPa | 0 mm | - | 46 W/m² | - |
| 1778359869 | 23.89° C | 52% | 1009.9 hPa | 0 mm | - | 46 W/m² | - |
| 1778359566 | 23.89° C | 50% | 1009.8 hPa | 0 mm | - | 47 W/m² | - |
| 1778359263 | 23.89° C | 54% | 1010 hPa | 0 mm | - | 48 W/m² | - |
| 1778358959 | 23.89° C | 51% | 1009.9 hPa | 0 mm | - | 49 W/m² | - |
| 1778358657 | 23.89° C | 57% | 1009.9 hPa | 0 mm | - | 59 W/m² | - |
| 1778358351 | 23.89° C | 52% | 1010.1 hPa | 0 mm | - | 82 W/m² | - |
| 1778358047 | 24.44° C | 49% | 1010.2 hPa | 0 mm | - | 293 W/m² | - |
| 1778357742 | 23.89° C | 54% | 1010 hPa | 0 mm | - | 360 W/m² | - |
| 1778357440 | 24.44° C | 53% | 1010.2 hPa | 0 mm | - | 375 W/m² | - |
| 1778357139 | 24.44° C | 52% | 1010.2 hPa | 0 mm | - | 360 W/m² | - |
| 1778356836 | 24.44° C | 54% | 1010.3 hPa | 0 mm | - | 140 W/m² | - |
* Rain latest hour (hover to see other rain measurements)
** Current wind speed in m/s (hover to see current wind gust speed)